User: anonymous   Login
Location: Cluny
(50.9333°N, 112.8167°W)
Time: 20:16:03
(UTC-06:00)
Language:

Cosmos 1743 Rocket - Orbit

View from above orbital plane
View from above orbital plane
View from above satellite
View from above satellite

Ground track
Ground track

The orbit data is extracted from the following two-line orbital elements,

1 16720U 86034B   17231.47295123  .00000064  00000-0  48921-5 0  9993
2 16720  82.5555 182.4979 0018670 251.5392 247.7683 14.83298113688646
Epoch (UTC): 19 August 2017 11:21:02
Eccentricity: 0.0018670
inclination: 82.5555°
perigee height: 606 km
apogee height: 632 km
right ascension of ascending node: 182.4979°
argument of perigee: 251.5392°
revolutions per day: 14.83298113
mean anomaly at epoch: 247.7683°
orbit number at epoch: 68864

The dashed part of the orbit path shows where the satellite is in the earth's shadow,  

DLR